[[{"header":{"parameterUnit":"m.s-1","parameterCategory":1,"la1":30.2991,"la2":30.254,"lo1":-89.0895,"lo2":-89.0444,"dy":0.0017,"dx":0.0017,"nx":28,"ny":28,"refTime":"2023-10-18T21:00:00:Z","depth":0,"parameterNumber":2,"parameterNumberName":"U-component_of_WINDS"},"data":[0,0,0,0,0,0,0,0,0,0,0,0,0,0,0,0,0,0,0,0,0,0,0,0,0,0,0,0,0,0,0,0,0,0,0,0,0,0,0,0,0,0,0,0,0,0,0,0,0,0,0,0,0,0,0,0,0,0,4.8535,4.8536,0,4.8625,4.8626,4.8628,4.8588,4.8586,4.8583,4.8581,4.868,4.8685,4.8689,0,0,0,0,0,0,0,0,0,0,0,0,0,4.8334,4.8338,4.8534,4.8536,4.8537,4.8625,4.8627,4.8628,4.8588,4.8586,4.8583,4.858,4.8679,4.8684,4.869,0,0,0,0,0,0,0,0,0,0,0,0,0,4.8423,4.8339,4.8534,4.8528,4.8528,4.8625,4.8627,4.8628,4.8589,4.8585,4.8582,4.8579,4.8677,4.8684,4.8691,4.8802,0,0,4.8712,4.8715,0,0,0,0,0,0,0,0,4.8418,4.843,4.8527,4.8528,4.8529,4.8592,4.8592,4.8687,4.859,4.8566,4.8581,4.8577,4.8654,4.8663,4.8687,4.8806,4.881,4.8713,4.8717,4.872,4.8722,0,0,0,0,0,0,0,4.8412,4.8426,4.8571,4.8529,4.853,4.8523,4.8531,4.861,4.8628,4.8568,4.8565,4.8576,4.8654,4.868,4.8689,4.8812,4.8713,4.8719,4.8723,4.8726,4.9032,4.9036,0,0,0,0,0,0,4.8405,4.8421,4.8568,4.8573,4.8464,4.8529,4.8539,4.8575,4.8627,4.8631,4.8579,4.8574,4.867,4.8681,4.8693,4.883,4.872,4.8727,4.8731,4.9029,4.9033,4.9038,0,0,0,0,0,0,4.8401,4.8418,4.8564,4.8497,4.8515,4.8536,4.8577,4.8579,4.8605,4.8635,4.8639,4.8603,4.8668,4.8683,4.8776,4.8833,4.873,4.8736,4.9024,4.903,4.9035,4.9104,0,0,0,0,0,0,4.8395,4.8417,4.8457,4.8498,4.8518,4.8644,4.858,4.8583,4.8617,4.8611,4.8658,4.8663,4.8666,4.8765,4.8783,4.8841,4.8742,4.9019,4.9027,4.9034,4.9097,4.9111,4.9124,0,0,0,0,0,4.8388,4.8473,4.846,4.8477,4.8569,4.8647,4.8659,4.8659,4.8622,4.8664,4.8684,4.8661,4.8823,4.8775,4.8794,4.8856,4.9016,4.9025,4.9033,4.9091,4.9109,4.9124,0,0,0,0,0,0,4.844,4.8478,4.8464,4.8564,4.8602,4.864,4.8693,4.8677,4.8729,4.8722,4.8722,4.8733,4.883,4.8851,4.8797,4.8969,4.8914,4.8927,4.8951,4.8969,4.8982,4.8977,4.8748,0,0,0,0,0,4.8463,4.852,4.8551,4.8637,4.8657,4.8672,4.8706,4.8703,4.8744,4.876,4.8786,4.8829,4.889,4.8929,4.8986,4.9099,4.9111,4.9151,4.9164,4.9175,4.9188,4.9254,4.9274,4.9066,4.9066,4.9066,0,0,4.8511,4.8539,4.8576,4.8648,4.8678,4.8741,4.8686,4.8754,4.8802,4.8771,4.8862,4.8882,4.893,4.9034,4.9081,4.9055,4.9248,4.9186,4.9195,4.9202,4.9265,4.9285,4.9302,4.9072,4.9071,4.907,0,0,4.8632,4.8657,4.8734,4.8765,4.881,4.882,4.8838,4.8879,4.8892,4.8981,4.8961,4.9019,4.9122,4.9158,4.919,4.9328,4.9312,4.9347,4.942,4.9484,4.9501,4.9515,4.957,4.9588,4.9358,4.9359,4.9359,0,4.8688,4.878,4.8775,4.8846,4.8881,4.8854,4.8935,4.8965,4.9027,4.9054,4.9022,4.9154,4.9184,4.9299,4.9333,4.9358,4.9383,4.9343,4.9498,4.9513,4.9526,4.9578,4.9598,4.9363,4.9362,4.9362,4.9362,0,4.8848,4.8913,4.8969,4.903,4.9071,4.9145,4.9156,4.9198,4.9192,4.9206,4.9301,4.9335,4.9402,4.9428,4.9422,4.9544,4.9527,4.9497,4.9443,4.9551,4.96,4.9619,4.9369,4.9368,4.9366,4.9365,0,0,4.9006,4.9064,4.9086,4.9115,4.9164,4.9215,4.929,4.9354,4.9392,4.9436,4.9503,4.9592,4.9566,4.9602,4.9601,4.9657,4.977,4.9621,4.9622,4.9652,4.9912,4.9938,4.9961,4.9758,4.9761,4.9764,4.991,0,4.9135,4.9266,4.9265,4.9388,4.945,4.9427,4.9493,4.9532,4.9548,4.9606,4.9623,4.9688,4.9646,4.9669,4.9722,4.9745,4.9824,4.9734,4.9824,4.9828,4.9818,4.9985,5.0012,5.0148,4.9929,4.9932,4.9934,0,4.9303,4.9353,4.9482,4.9525,4.9551,4.9611,4.9671,4.9725,4.977,4.9778,4.982,4.981,4.9891,4.9832,4.9946,4.9885,4.9922,4.9939,4.9944,4.9956,4.989,5.0007,5.019,5.0213,4.9963,4.9961,4.9959,0,4.9412,4.9511,4.9602,4.9627,4.9679,4.9722,4.9746,4.9787,4.9827,4.988,4.9907,4.9968,5.0004,5.0053,5.0063,5.0018,5.0179,5.0119,5.0192,5.0192,5.023,5.0229,5.0427,5.0246,5.0246,5.0245,5.0245,0,4.9559,4.964,4.9652,4.9709,4.98,4.98,4.9891,4.9912,4.9949,5.0012,4.9994,5.0054,5.0061,5.0123,5.0131,5.0227,5.0242,5.0254,5.0256,5.0258,5.0257,5.0285,5.0278,5.0251,5.025,5.0249,5.0248,0,4.9698,4.9708,4.9807,4.9848,4.986,4.9927,4.9963,5.0019,5.0032,5.0113,5.0131,5.0154,5.0227,5.024,5.0326,5.0332,5.0448,5.0438,5.0433,5.0434,5.0508,5.0502,5.0735,5.0768,5.0561,5.0563,5.0564,0,4.9793,4.9855,4.9903,4.9943,4.997,5.0034,5.0074,5.0077,5.012,5.0178,5.0228,5.0299,5.0356,5.0475,5.0501,5.0568,5.0563,5.0639,5.0573,5.0575,5.057,5.0568,5.0577,5.0654,5.0656,5.0658,5.0659,0,4.9964,4.9967,5.0024,5.0086,5.0134,5.0183,5.0229,5.0263,5.0272,5.0322,5.0396,5.0441,5.0529,5.0602,5.0668,5.0696,5.0682,5.0679,5.0701,5.0706,5.0703,5.0711,5.0474,5.0675,5.0673,5.0672,5.0671,5.0671,5.0087,5.0143,5.0187,5.0253,5.0288,5.0332,5.0388,5.0408,5.0469,5.0541,5.0539,5.0622,5.0669,5.0757,5.0789,5.0856,5.0832,5.0861,5.087,5.0878,5.0888,5.0688,5.0867,5.0867,5.0867,5.0866,5.0866,0,5.0262,5.0288,5.0349,5.0414,5.0468,5.0446,5.0496,5.0544,5.0616,5.066,5.0717,5.0804,5.0875,5.0907,5.0977,5.1025,5.1021,5.1044,5.1043,5.1051,5.0903,5.088,5.1047,5.1047,5.1047,5.1047,5.1047,5.1047,5.0359,5.0454,5.0462,5.0575,5.0602,5.0682,5.0713,5.0755,5.0791,5.0889,5.0947,5.0966,5.1007,5.1081,5.1146,5.1154,5.1183,5.1211,5.1217,5.1079,5.106,5.1043,5.1022,5.1216,5.1216,5.136,5.1361,5.1362]},{"header":{"parameterUnit":"m.s-1","parameterCategory":1,"la1":30.2991,"la2":30.254,"lo1":-89.0895,"lo2":-89.0444,"dy":0.0017,"dx":0.0017,"nx":28,"ny":28,"refTime":"2023-10-18T21:00:00:Z","depth":0,"parameterNumber":3,"parameterNumberName":"V-component_of_WINDS"},"data":[0,0,0,0,0,0,0,0,0,0,0,0,0,0,0,0,0,0,0,0,0,0,0,0,0,0,0,0,0,0,0,0,0,0,0,0,0,0,0,0,0,0,0,0,0,0,0,0,0,0,0,0,0,0,0,0,0,0,-0.1211,-0.121,0,-0.1081,-0.108,-0.1079,-0.1101,-0.1103,-0.1105,-0.1107,-0.0972,-0.0966,-0.0961,0,0,0,0,0,0,0,0,0,0,0,0,0,-0.148,-0.1475,-0.1212,-0.121,-0.1208,-0.1082,-0.108,-0.1078,-0.11,-0.1103,-0.1106,-0.1108,-0.0974,-0.0967,-0.096,0,0,0,0,0,0,0,0,0,0,0,0,0,-0.1358,-0.1474,-0.1212,-0.1204,-0.1202,-0.1082,-0.108,-0.1078,-0.11,-0.1103,-0.1107,-0.111,-0.0976,-0.0968,-0.0959,-0.0838,0,0,-0.0933,-0.0929,0,0,0,0,0,0,0,0,-0.1365,-0.1348,-0.1207,-0.1204,-0.1202,-0.1111,-0.1125,-0.0997,-0.1099,-0.1138,-0.1107,-0.1111,-0.1015,-0.1004,-0.0972,-0.0832,-0.0826,-0.0932,-0.0927,-0.0923,-0.0921,0,0,0,0,0,0,0,-0.1374,-0.1354,-0.116,-0.1205,-0.1202,-0.1208,-0.1194,-0.1101,-0.1059,-0.1135,-0.1137,-0.1121,-0.1015,-0.098,-0.0969,-0.0824,-0.0932,-0.0925,-0.092,-0.0916,-0.0584,-0.058,0,0,0,0,0,0,-0.1384,-0.1361,-0.1164,-0.1156,-0.1294,-0.12,-0.1185,-0.1137,-0.106,-0.1052,-0.1118,-0.1123,-0.0993,-0.0979,-0.0964,-0.0821,-0.0923,-0.0915,-0.091,-0.0587,-0.0583,-0.0579,0,0,0,0,0,0,-0.139,-0.1367,-0.1169,-0.1259,-0.1234,-0.1192,-0.1137,-0.1132,-0.1098,-0.1047,-0.104,-0.109,-0.0995,-0.0976,-0.0871,-0.0816,-0.0911,-0.0904,-0.0592,-0.0586,-0.0581,-0.0531,0,0,0,0,0,0,-0.1398,-0.1369,-0.1321,-0.1258,-0.1229,-0.1077,-0.1134,-0.1127,-0.1083,-0.1087,-0.1019,-0.1011,-0.0996,-0.0883,-0.0862,-0.0806,-0.0897,-0.0596,-0.0589,-0.0583,-0.0538,-0.0525,-0.0514,0,0,0,0,0,-0.1407,-0.1311,-0.1319,-0.1295,-0.117,-0.1074,-0.1058,-0.1043,-0.1078,-0.1032,-0.1,-0.1014,-0.0826,-0.0872,-0.0849,-0.0789,-0.06,-0.0591,-0.0583,-0.0543,-0.0527,-0.0514,0,0,0,0,0,0,-0.1367,-0.1302,-0.131,-0.119,-0.1138,-0.1078,-0.1018,-0.1026,-0.0962,-0.0969,-0.0952,-0.0937,-0.0831,-0.0799,-0.0852,-0.0671,-0.0718,-0.0704,-0.0695,-0.068,-0.0669,-0.0679,-0.089,0,0,0,0,0,-0.1345,-0.1273,-0.122,-0.1119,-0.1093,-0.106,-0.1018,-0.1011,-0.0956,-0.0934,-0.0894,-0.084,-0.077,-0.0723,-0.0654,-0.0533,-0.0521,-0.0481,-0.047,-0.046,-0.0449,-0.0388,-0.0371,-0.0552,-0.0552,-0.0552,0,0,-0.1296,-0.1252,-0.1207,-0.111,-0.1069,-0.0996,-0.1041,-0.096,-0.0907,-0.0921,-0.0821,-0.079,-0.0729,-0.0616,-0.0565,-0.0587,-0.0397,-0.0449,-0.0442,-0.0436,-0.0377,-0.036,-0.0345,-0.0546,-0.0547,-0.0548,0,0,-0.1173,-0.1131,-0.1045,-0.1004,-0.0941,-0.0921,-0.0901,-0.084,-0.0822,-0.072,-0.0731,-0.0667,-0.0544,-0.0502,-0.0464,-0.033,-0.0341,-0.0308,-0.0246,-0.0186,-0.0172,-0.016,-0.0115,-0.0099,-0.0297,-0.0297,-0.0297,0,-0.1121,-0.1012,-0.0999,-0.0919,-0.0878,-0.089,-0.0804,-0.0764,-0.0682,-0.0654,-0.068,-0.053,-0.0489,-0.0369,-0.0337,-0.0305,-0.0283,-0.0316,-0.0175,-0.0163,-0.0151,-0.0108,-0.0091,-0.0293,-0.0294,-0.0294,-0.0294,0,-0.0953,-0.0877,-0.0815,-0.0739,-0.0691,-0.0608,-0.0584,-0.0536,-0.0535,-0.0513,-0.0413,-0.0365,-0.0289,-0.026,-0.0256,-0.0141,-0.0157,-0.0179,-0.0226,-0.013,-0.0091,-0.0074,-0.0288,-0.029,-0.0291,-0.0291,0,0,-0.0798,-0.072,-0.0697,-0.0665,-0.06,-0.0541,-0.0461,-0.0389,-0.035,-0.0294,-0.0228,-0.0126,-0.0148,-0.0105,-0.0098,-0.0045,0.0053,-0.0074,-0.0073,-0.0055,0.0178,0.0192,0.0211,0.0046,0.0049,0.0051,0.0172,0,-0.0671,-0.053,-0.0519,-0.0392,-0.0324,-0.0336,-0.0267,-0.022,-0.0198,-0.0138,-0.0113,-0.0043,-0.0075,-0.005,0.0002,0.003,0.0099,0.0022,0.0105,0.0108,0.0088,0.0233,0.0249,0.0361,0.0188,0.019,0.0192,0,-0.0503,-0.0446,-0.0313,-0.0262,-0.0233,-0.017,-0.0106,-0.0048,0.0004,0.0016,0.0061,0.006,0.014,0.0091,0.02,0.0147,0.0181,0.02,0.0204,0.0211,0.0155,0.0241,0.0397,0.0412,0.0218,0.0216,0.0214,0,-0.0409,-0.0297,-0.0205,-0.0176,-0.0113,-0.007,-0.0041,0.0007,0.0048,0.0104,0.013,0.0195,0.0231,0.0281,0.0296,0.0259,0.0403,0.0356,0.0414,0.0413,0.0444,0.0441,0.0605,0.047,0.047,0.047,0.047,0,-0.0269,-0.0188,-0.0163,-0.0106,-0.0017,-0.0005,0.0082,0.0108,0.015,0.021,0.0205,0.0261,0.028,0.0339,0.0352,0.0438,0.0455,0.0465,0.0467,0.0464,0.0462,0.0486,0.0478,0.0474,0.0473,0.0472,0.0472,0,-0.0149,-0.0127,-0.0028,0.0022,0.0036,0.0099,0.0142,0.0195,0.0215,0.0291,0.0309,0.0341,0.0409,0.043,0.0514,0.0522,0.0621,0.0618,0.0603,0.0603,0.0658,0.0651,0.084,0.0864,0.0716,0.0718,0.0719,0,-0.0062,-0.0001,0.0055,0.0094,0.0123,0.0187,0.0227,0.024,0.0283,0.0343,0.0389,0.0456,0.0511,0.0621,0.065,0.0713,0.0709,0.0771,0.0718,0.0712,0.0706,0.0701,0.0705,0.078,0.0782,0.0783,0.0784,0,0.0088,0.0094,0.0152,0.0213,0.0261,0.031,0.0357,0.039,0.0409,0.0456,0.0525,0.0567,0.065,0.0716,0.0779,0.0807,0.0798,0.08,0.0816,0.0813,0.08,0.0804,0.0627,0.0796,0.0795,0.0794,0.0793,0.0793,0.0192,0.0244,0.0289,0.0353,0.0389,0.0432,0.0483,0.0508,0.0566,0.0633,0.0637,0.0711,0.0757,0.084,0.0871,0.0927,0.0909,0.0934,0.0939,0.0944,0.0947,0.0793,0.0939,0.0939,0.0939,0.0939,0.0938,0,0.0338,0.0366,0.0424,0.0489,0.0538,0.0524,0.0574,0.0616,0.0681,0.0724,0.0777,0.0854,0.0916,0.0949,0.1011,0.105,0.1047,0.1066,0.1062,0.1067,0.0962,0.094,0.1066,0.1066,0.1066,0.1066,0.1066,0.1066,0.042,0.0505,0.0516,0.0618,0.0646,0.0717,0.0746,0.0784,0.0818,0.0904,0.0955,0.0976,0.1014,0.1078,0.1134,0.1141,0.1163,0.1183,0.1188,0.1089,0.1075,0.1063,0.1042,0.1189,0.1189,0.1289,0.129,0.1291]}]]